User: anonymous   Login
Location: Cincinnati Observatory Center
(39.1389°N, 84.4225°W)
Time: 07:38:24
(UTC-04:00)
Language:

COSMOS 2428 - Orbit

View from above orbital plane
View from above orbital plane
View from above satellite
View from above satellite

Ground track
Ground track

The orbit data is extracted from the following two-line orbital elements,

1 31792U 07029A   15111.17872984  .00000025  00000-0  39141-4 0  9994
2 31792 070.9824 264.5243 0006064 010.2658 110.2101 14.12544321402805
Epoch (UTC): 21 April 2015 04:17:22
Eccentricity: 0.0006064
inclination: 70.9824°
perigee height: 846 km
apogee height: 855 km
right ascension of ascending node: 264.5243°
argument of perigee: 10.2658°
revolutions per day: 14.12544321
mean anomaly at epoch: 110.2101°
orbit number at epoch: 40280

The dashed part of the orbit path shows where the satellite is in the earth's shadow,  

DLR